Weather History for Scappoose, OR

Change the Weather History Date:

Sunday, October 23, 2011

  Actual Average Record
Temperature  
Mean Temperature 54 °F -  
Max Temperature 61 °F - 75 °F (2007)
Min Temperature 44 °F - 35 °F (2008)
Degree Days  
Heating Degree Days 12    
Month to date heating degree days 227  
Since 1 July heating degree days 413  
Cooling Degree Days 0    
Month to date cooling degree days 0  
Year to date cooling degree days 202  
Growing Degree Days 4 (Base 50)    
Moisture  
Dew Point 50 °F    
Average Humidity 82    
Maximum Humidity 100    
Minimum Humidity 64    
Precipitation  
Precipitation 0.06 in - 0.94 in (2010)
Month to date precipitation 1.86  
Year to date precipitation 29.96  
Sea Level Pressure  
Sea Level Pressure 30.18 in    
Wind  
Wind Speed 2 mph (NNW)    
Max Wind Speed 13 mph    
Max Gust Speed 20 mph    
Visibility 10 miles    
Events Rain    
T = Trace of Precipitation, MM = Missing Value Source: NWS Daily Summary

Daily Weather History Graph

Daily Weather History Graph

Search for Another Location

Airport:

Trip Planner

Search our weather history database for the weather conditions in past years. The results will help you decide how hot, cold, wet, or windy it might be!

Date:

Astronomy

Oct. 23, 2011 Rise Set
Actual Time 7:38 AM PDT 6:12 PM PDT
Civil Twilight 7:08 AM PDT 6:42 PM PDT
Nautical Twilight 6:33 AM PDT 7:17 PM PDT
Astronomical Twilight 5:59 AM PDT 7:51 PM PDT
Moon 3:42 AM PDT (10/23) 4:14 PM PDT (10/23)
Length of Visible Light 11h 34m
Length of Day
10h 33m
Waning Crescent, 13% of the Moon is Illuminated
Oct 23
Waning Crescent
Oct 26
New
Nov 2
First Quarter
Nov 10
Full
Nov 18
Last Quarter

Hourly Weather History & Observations

Time (PDT) Temp. Dew Point Humidity Pressure Visibility Wind Dir Wind Speed Gust Speed Precip Events Conditions
12:53 AM 51.1 °F 51.1 °F 100% 30.21 in 10.0 mi Calm Calm - N/A   Clear
1:53 AM 52.0 °F 51.1 °F 97% 30.21 in 10.0 mi Calm Calm - N/A   Overcast
2:30 AM 53.6 °F 53.6 °F 100% 30.21 in 7.0 mi NNW 4.6 mph - 0.03 in Rain Light Rain
2:49 AM 55.4 °F 53.6 °F 94% 30.21 in 10.0 mi North 4.6 mph - 0.03 in Rain Light Rain
2:53 AM 55.0 °F 54.0 °F 96% 30.21 in 10.0 mi NNE 5.8 mph - 0.03 in   Overcast
3:45 AM 55.4 °F 53.6 °F 94% 30.21 in 10.0 mi Calm Calm - N/A   Overcast
3:53 AM 55.0 °F 54.0 °F 96% 30.21 in 5.0 mi Calm Calm - 0.01 in Rain Light Rain
4:01 AM 55.4 °F 55.4 °F 100% 30.20 in 3.0 mi Calm Calm - 0.01 in Rain Rain
4:27 AM 55.4 °F 53.6 °F 94% 30.20 in 10.0 mi Calm Calm - 0.02 in   Overcast
4:35 AM 55.4 °F 53.6 °F 94% 30.20 in 10.0 mi North 3.5 mph - 0.02 in   Overcast
4:44 AM 55.4 °F 53.6 °F 94% 30.20 in 10.0 mi North 3.5 mph - 0.02 in   Overcast
4:53 AM 55.9 °F 54.0 °F 93% 30.20 in 10.0 mi Calm Calm - 0.02 in   Overcast
5:03 AM 55.4 °F 53.6 °F 94% 30.19 in 9.0 mi North 3.5 mph - 0.00 in Rain Light Rain
5:34 AM 55.4 °F 53.6 °F 94% 30.20 in 10.0 mi North 3.5 mph - 0.00 in   Overcast
5:53 AM 55.0 °F 52.0 °F 89% 30.20 in 10.0 mi NW 3.5 mph - 0.00 in   Mostly Cloudy
6:53 AM 55.0 °F 52.0 °F 89% 30.19 in 10.0 mi Calm Calm - N/A   Overcast
7:29 AM 51.8 °F 50.0 °F 94% 30.19 in 10.0 mi WSW 3.5 mph - N/A   Scattered Clouds
7:53 AM 51.1 °F 48.9 °F 92% 30.19 in 10.0 mi Calm Calm - N/A   Scattered Clouds
8:53 AM 54.0 °F 51.1 °F 90% 30.20 in 10.0 mi Calm Calm - N/A   Partly Cloudy
9:53 AM 55.0 °F 52.0 °F 89% 30.20 in 10.0 mi Calm Calm - N/A   Clear
10:53 AM 55.9 °F 52.0 °F 87% 30.20 in 10.0 mi Calm Calm - N/A   Mostly Cloudy
11:16 AM 57.2 °F 51.8 °F 82% 30.20 in 10.0 mi Calm Calm - N/A   Scattered Clouds
11:53 AM 61.0 °F 51.1 °F 70% 30.19 in 10.0 mi Calm Calm - N/A   Scattered Clouds
12:00 PM 60.8 °F 53.6 °F 77% 30.18 in 10.0 mi ENE 3.5 mph - N/A   Mostly Cloudy
12:53 PM 61.0 °F 51.1 °F 70% 30.17 in 10.0 mi Calm Calm - N/A   Scattered Clouds
1:53 PM 61.0 °F 50.0 °F 67% 30.14 in 10.0 mi Calm Calm - N/A   Partly Cloudy
2:28 PM 60.8 °F 48.2 °F 63% 30.14 in 10.0 mi North 5.8 mph - N/A   Mostly Cloudy
2:53 PM 61.0 °F 48.9 °F 64% 30.13 in 10.0 mi North 6.9 mph - N/A   Scattered Clouds
3:53 PM 59.0 °F 48.9 °F 69% 30.13 in 10.0 mi North 9.2 mph - N/A   Partly Cloudy
4:53 PM 57.0 °F 46.9 °F 69% 30.12 in 10.0 mi North 4.6 mph - N/A   Partly Cloudy
5:53 PM 55.9 °F 44.1 °F 64% 30.13 in 10.0 mi NNW 9.2 mph - N/A   Mostly Cloudy
6:53 PM 54.0 °F 43.0 °F 66% 30.12 in 10.0 mi Calm Calm - N/A   Scattered Clouds
7:53 PM 52.0 °F 44.1 °F 74% 30.13 in 10.0 mi NNW 3.5 mph - N/A   Clear
8:53 PM 50.0 °F 44.1 °F 80% 30.14 in 10.0 mi Variable 3.5 mph - N/A   Clear
9:53 PM 51.1 °F 44.1 °F 77% 30.16 in 10.0 mi NW 4.6 mph - N/A   Mostly Cloudy
10:53 PM 48.9 °F 42.1 °F 77% 30.16 in 10.0 mi Calm Calm - N/A   Clear
11:53 PM 48.9 °F 43.0 °F 80% 30.18 in 10.0 mi NW 6.9 mph - N/A   Clear